When you browse on this site, cookies collect data to enhance your experience and personalize the content and advertising you see.
Visit our Privacy Policy to learn more. By continuing to use the site, you agree to this use of cookies and data.
  • En España
  • Lista de países
  • Para 7 días
  • Temperatura del agua
  • El tiempo en el mapa
  • Informadores
  • user-avatar
    Iniciar sesión

    Tiempo cada hora Norwich

    Hoy, 21 Septiembre, Sábado

    Tiempo Temperatura Precipitaciones Viento Presión Humedad
    00:00 +14°C° 0 mm 5 mps 763 mmHg 76%
    01:00 +14°C° 0 mm 5 mps 762 mmHg 76%
    02:00 +14°C° 0 mm 5 mps 762 mmHg 77%
    03:00 +13°C° 0 mm 5 mps 761 mmHg 77%
    04:00 +13°C° 0 mm 5 mps 761 mmHg 77%
    05:00 +13°C° 0 mm 5 mps 760 mmHg 77%
    06:00 +13°C° 0 mm 5 mps 760 mmHg 77%
    07:00 +14°C° 0 mm 6 mps 760 mmHg 71%
    08:00 +16°C° 0 mm 6 mps 759 mmHg 64%
    09:00 +17°C° 0 mm 7 mps 759 mmHg 58%
    10:00 +18°C° 0 mm 7 mps 759 mmHg 56%
    11:00 +18°C° 0 mm 7 mps 758 mmHg 53%
    12:00 +20°C° 0 mm 7 mps 758 mmHg 51%
    13:00 +20°C° 0 mm 7 mps 757 mmHg 52%
    14:00 +20°C° 0 mm 7 mps 757 mmHg 53%
    15:00 +20°C° 0 mm 6 mps 756 mmHg 54%
    16:00 +19°C° 0 mm 6 mps 756 mmHg 58%
    17:00 +17°C° 0 mm 5 mps 755 mmHg 62%
    18:00 +16°C° 0 mm 5 mps 755 mmHg 66%
    19:00 +17°C° 0 mm 4 mps 755 mmHg 70%
    20:00 +17°C° 0 mm 4 mps 754 mmHg 74%
    21:00 +17°C° 0 mm 4 mps 754 mmHg 78%
    22:00 +17°C° 0 mm 4 mps 754 mmHg 79%
    23:00 +18°C° 0 mm 4 mps 753 mmHg 81%

    Mañana, 22 Septiembre, Domingo

    Tiempo Temperatura Precipitaciones Viento Presión Humedad
    00:00 +18°C° 0 mm 4 mps 753 mmHg 82%
    01:00 +18°C° 0 mm 4 mps 753 mmHg 83%
    02:00 +17°C° 0 mm 4 mps 752 mmHg 84%
    03:00 +17°C° 0 mm 4 mps 752 mmHg 85%
    04:00 +17°C° 0 mm 4 mps 751 mmHg 85%
    05:00 +16°C° 0 mm 5 mps 751 mmHg 84%
    06:00 +16°C° 0 mm 5 mps 751 mmHg 83%
    07:00 +17°C° 0 mm 5 mps 751 mmHg 79%
    08:00 +19°C° 0 mm 5 mps 750 mmHg 75%
    09:00 +20°C° 0 mm 6 mps 750 mmHg 71%
    10:00 +21°C° 0 mm 6 mps 750 mmHg 70%
    11:00 +22°C° 0 mm 6 mps 750 mmHg 68%
    12:00 +23°C° 0 mm 7 mps 750 mmHg 67%
    13:00 +21°C° 0.1 mm 7 mps 750 mmHg 71%
    14:00 +20°C° 0.1 mm 7 mps 750 mmHg 75%
    15:00 +17°C° 0.1 mm 7 mps 750 mmHg 78%
    16:00 +17°C° 0.1 mm 6 mps 750 mmHg 78%
    17:00 +16°C° 0.1 mm 5 mps 750 mmHg 77%
    18:00 +17°C° 0.1 mm 4 mps 750 mmHg 76%
    19:00 +17°C° 0 mm 4 mps 751 mmHg 79%
    20:00 +15°C° 0 mm 4 mps 751 mmHg 81%
    21:00 +15°C° 0 mm 4 mps 751 mmHg 84%
    22:00 +15°C° 0 mm 4 mps 751 mmHg 85%
    23:00 +15°C° 0 mm 4 mps 751 mmHg 85%

    Pasado mañana, 23 Septiembre, Lunes

    Tiempo Temperatura Precipitaciones Viento Presión Humedad
    00:00 +15°C° 0 mm 5 mps 751 mmHg 86%
    01:00 +14°C° 0 mm 5 mps 752 mmHg 88%
    02:00 +14°C° 0 mm 6 mps 752 mmHg 89%
    03:00 +13°C° 0 mm 6 mps 752 mmHg 90%
    04:00 +13°C° 0 mm 6 mps 752 mmHg 87%
    05:00 +13°C° 0 mm 6 mps 752 mmHg 84%
    06:00 +11°C° 0 mm 7 mps 753 mmHg 81%
    07:00 +14°C° 0 mm 7 mps 753 mmHg 75%
    08:00 +15°C° 0 mm 7 mps 753 mmHg 69%
    09:00 +16°C° 0 mm 7 mps 754 mmHg 64%
    10:00 +17°C° 0 mm 7 mps 754 mmHg 62%
    11:00 +18°C° 0 mm 7 mps 754 mmHg 60%
    12:00 +20°C° 0 mm 7 mps 754 mmHg 59%
    13:00 +20°C° 0 mm 7 mps 754 mmHg 59%
    14:00 +20°C° 0 mm 7 mps 754 mmHg 59%
    15:00 +20°C° 0 mm 7 mps 754 mmHg 59%
    16:00 +19°C° 0 mm 6 mps 753 mmHg 63%
    17:00 +17°C° 0 mm 6 mps 753 mmHg 67%
    18:00 +16°C° 0 mm 5 mps 753 mmHg 72%
    19:00 +16°C° 1 mm 6 mps 752 mmHg 77%
    20:00 +15°C° 1 mm 6 mps 752 mmHg 82%
    21:00 +15°C° 1 mm 7 mps 752 mmHg 86%
    22:00 +15°C° 0.9 mm 7 mps 752 mmHg 87%
    23:00 +15°C° 0.9 mm 8 mps 751 mmHg 88%

    24 Septiembre, Martes

    Tiempo Temperatura Precipitaciones Viento Presión Humedad
    00:00 +15°C° 0.9 mm 8 mps 751 mmHg 89%
    01:00 +16°C° 1.5 mm 8 mps 750 mmHg 90%
    02:00 +16°C° 1.5 mm 7 mps 750 mmHg 91%
    03:00 +16°C° 1.5 mm 6 mps 750 mmHg 92%
    04:00 +16°C° 0.3 mm 6 mps 749 mmHg 92%
    05:00 +16°C° 0.3 mm 6 mps 749 mmHg 92%
    06:00 +16°C° 0.3 mm 6 mps 749 mmHg 92%
    07:00 +16°C° 0.3 mm 7 mps 748 mmHg 89%
    08:00 +17°C° 0.3 mm 7 mps 748 mmHg 86%
    09:00 +18°C° 0.3 mm 8 mps 748 mmHg 83%
    10:00 +17°C° 1.9 mm 8 mps 747 mmHg 84%
    11:00 +17°C° 1.9 mm 8 mps 747 mmHg 84%
    12:00 +17°C° 1.9 mm 8 mps 747 mmHg 84%
    13:00 +18°C° 0.2 mm 8 mps 747 mmHg 78%
    14:00 +18°C° 0.2 mm 8 mps 746 mmHg 71%
    15:00 +20°C° 0.2 mm 7 mps 746 mmHg 65%
    16:00 +18°C° 0 mm 7 mps 746 mmHg 68%
    17:00 +17°C° 0 mm 6 mps 746 mmHg 71%
    18:00 +16°C° 0 mm 6 mps 746 mmHg 75%
    19:00 +15°C° 0 mm 7 mps 746 mmHg 75%
    20:00 +15°C° 0 mm 7 mps 746 mmHg 76%
    21:00 +15°C° 0 mm 8 mps 746 mmHg 76%
    22:00 +15°C° 0 mm 8 mps 746 mmHg 77%
    23:00 +15°C° 0 mm 7 mps 746 mmHg 78%

    25 Septiembre, Miércoles

    Tiempo Temperatura Precipitaciones Viento Presión Humedad
    00:00 +15°C° 0 mm 7 mps 745 mmHg 79%
    01:00 +15°C° 0 mm 7 mps 745 mmHg 79%
    02:00 +15°C° 0 mm 8 mps 744 mmHg 78%
    03:00 +15°C° 0 mm 8 mps 744 mmHg 78%
    04:00 +13°C° 0 mm 8 mps 744 mmHg 79%
    05:00 +14°C° 0 mm 7 mps 744 mmHg 81%
    06:00 +14°C° 0 mm 7 mps 744 mmHg 82%
    07:00 +14°C° 0 mm 7 mps 744 mmHg 79%
    08:00 +15°C° 0 mm 8 mps 745 mmHg 77%
    09:00 +16°C° 0 mm 8 mps 745 mmHg 74%
    10:00 +16°C° 0 mm 8 mps 745 mmHg 71%
    11:00 +17°C° 0 mm 8 mps 746 mmHg 69%
    12:00 +17°C° 0 mm 8 mps 746 mmHg 66%
    13:00 +17°C° 0.2 mm 8 mps 746 mmHg 66%
    14:00 +17°C° 0.2 mm 7 mps 746 mmHg 66%
    15:00 +17°C° 0.2 mm 7 mps 746 mmHg 67%
    16:00 +17°C° 0.1 mm 7 mps 746 mmHg 70%
    17:00 +16°C° 0.1 mm 6 mps 747 mmHg 73%
    18:00 +15°C° 0.1 mm 5 mps 747 mmHg 76%
    19:00 +14°C° 0.1 mm 5 mps 747 mmHg 80%
    20:00 +14°C° 0.1 mm 5 mps 747 mmHg 84%
    21:00 +13°C° 0.1 mm 5 mps 747 mmHg 87%
    22:00 +13°C° 0.1 mm 4 mps 746 mmHg 90%
    23:00 +13°C° 0.1 mm 3 mps 746 mmHg 93%

    26 Septiembre, Jueves

    Tiempo Temperatura Precipitaciones Viento Presión Humedad
    00:00 +14°C° 0.1 mm 2 mps 746 mmHg 96%
    01:00 +14°C° 0 mm 2 mps 745 mmHg 95%
    02:00 +14°C° 0 mm 3 mps 745 mmHg 95%
    03:00 +14°C° 0 mm 3 mps 744 mmHg 95%
    04:00 +15°C° 1.4 mm 4 mps 744 mmHg 94%
    05:00 +15°C° 1.4 mm 5 mps 744 mmHg 93%
    06:00 +16°C° 1.4 mm 6 mps 743 mmHg 92%
    07:00 +16°C° 0.2 mm 7 mps 743 mmHg 87%
    08:00 +17°C° 0.2 mm 8 mps 743 mmHg 82%
    09:00 +18°C° 0.2 mm 9 mps 743 mmHg 77%
    10:00 +18°C° 0.1 mm 8 mps 743 mmHg 74%
    11:00 +20°C° 0.1 mm 8 mps 744 mmHg 72%
    12:00 +20°C° 0.1 mm 7 mps 744 mmHg 69%
    13:00 +20°C° 0.3 mm 8 mps 744 mmHg 67%
    14:00 +19°C° 0.3 mm 9 mps 744 mmHg 64%
    15:00 +19°C° 0.3 mm 9 mps 743 mmHg 62%
    16:00 +17°C° 0 mm 8 mps 744 mmHg 65%
    17:00 +16°C° 0 mm 7 mps 744 mmHg 67%
    18:00 +15°C° 0 mm 7 mps 745 mmHg 70%
    19:00 +14°C° 0.1 mm 7 mps 745 mmHg 72%
    20:00 +14°C° 0.1 mm 7 mps 745 mmHg 74%
    21:00 +12°C° 0.1 mm 8 mps 745 mmHg 76%
    22:00 +12°C° 0 mm 8 mps 745 mmHg 77%
    23:00 +12°C° 0 mm 8 mps 745 mmHg 78%
    Mostrar más